Weather History for Warroad, MN

Change the Weather History Date:

Monday, October 8, 2012

  Actual Average Record
Temperature  
Mean Temperature 37 °F -  
Max Temperature 42 °F 56 °F 77 °F (1975)
Min Temperature 32 °F 36 °F 21 °F (1990)
Degree Days  
Heating Degree Days 28    
Moisture  
Dew Point 34 °F    
Average Humidity 86    
Maximum Humidity 93    
Minimum Humidity 81    
Precipitation  
Precipitation 0.21 in - - ()
Sea Level Pressure  
Sea Level Pressure 29.58 in    
Wind  
Wind Speed 1 mph (NW)    
Max Wind Speed 8 mph    
Max Gust Speed -    
Visibility 9 miles    
Events Rain    
Averages and records for this station are not official NWS values.
T = Trace of Precipitation, MM = Missing Value Source: NWS Daily Summary

Daily Weather History Graph

Daily Weather History Graph

Search for Another Location

Airport:

Trip Planner

Search our weather history database for the weather conditions in past years. The results will help you decide how hot, cold, wet, or windy it might be!

Date:

Astronomy

Oct. 08, 2012 Rise Set
Actual Time 7:32 AM CDT 6:44 PM CDT
Civil Twilight 7:00 AM CDT 7:16 PM CDT
Nautical Twilight 6:23 AM CDT 7:52 PM CDT
Astronomical Twilight 5:46 AM CDT 8:29 PM CDT
Moon No Moon Rise 3:05 PM CDT (10/8)
Length of Visible Light 12h 15m
Length of Day
11h 12m
Last Quarter, 46% of the Moon is Illuminated
Oct 8
Last Quarter
Oct 15
New
Oct 21
First Quarter
Oct 29
Full
Nov 6
Last Quarter

Hourly Weather History & Observations

Time (CDT) Temp. Windchill Dew Point Humidity Pressure Visibility Wind Dir Wind Speed Gust Speed Precip Events Conditions
12:14 AM 35.6 °F - 32.0 °F 87% 29.72 in 10.0 mi Calm Calm - N/A   Mostly Cloudy
12:33 AM 35.6 °F - 32.0 °F 87% 29.71 in 10.0 mi Calm Calm - N/A   Mostly Cloudy
12:54 AM 35.6 °F - 32.0 °F 87% 29.71 in 10.0 mi Calm Calm - N/A   Overcast
1:14 AM 37.4 °F - 33.8 °F 87% 29.70 in 10.0 mi Calm Calm - N/A   Overcast
1:33 AM 35.6 °F - 32.0 °F 87% 29.70 in 10.0 mi Calm Calm - N/A   Overcast
1:54 AM 35.6 °F - 32.0 °F 87% 29.70 in 10.0 mi Calm Calm - N/A   Overcast
2:14 AM 35.6 °F - 32.0 °F 87% 29.69 in 10.0 mi Calm Calm - N/A   Scattered Clouds
2:33 AM 35.6 °F - 32.0 °F 87% 29.69 in 10.0 mi Calm Calm - N/A   Clear
2:54 AM 35.6 °F - 32.0 °F 87% 29.68 in 10.0 mi Calm Calm - N/A   Clear
3:14 AM 35.6 °F - 30.2 °F 81% 29.67 in 10.0 mi Calm Calm - N/A   Scattered Clouds
3:34 AM 35.6 °F - 30.2 °F 81% 29.66 in 10.0 mi Calm Calm - N/A   Mostly Cloudy
3:54 AM 33.8 °F - 30.2 °F 87% 29.66 in 10.0 mi Calm Calm - N/A   Scattered Clouds
4:14 AM 33.8 °F - 28.4 °F 81% 29.65 in 10.0 mi Calm Calm - N/A   Clear
4:34 AM 32.0 °F - 28.4 °F 87% 29.64 in 10.0 mi Calm Calm - N/A   Clear
4:54 AM 33.8 °F - 28.4 °F 81% 29.64 in 10.0 mi Calm Calm - N/A   Clear
5:34 AM 33.8 °F - 28.4 °F 81% 29.63 in 10.0 mi Calm Calm - N/A   Mostly Cloudy
5:54 AM 33.8 °F - 30.2 °F 87% 29.62 in 10.0 mi Calm Calm - N/A   Scattered Clouds
6:14 AM 33.8 °F - 30.2 °F 87% 29.62 in 10.0 mi Calm Calm - N/A   Scattered Clouds
6:34 AM 35.6 °F - 30.2 °F 81% 29.61 in 10.0 mi Calm Calm - N/A   Mostly Cloudy
6:54 AM 35.6 °F - 30.2 °F 81% 29.61 in 10.0 mi Calm Calm - N/A   Scattered Clouds
7:14 AM 35.6 °F - 30.2 °F 81% 29.60 in 10.0 mi Calm Calm - N/A   Mostly Cloudy
7:34 AM 35.6 °F - 32.0 °F 87% 29.59 in 10.0 mi Calm Calm - N/A   Mostly Cloudy
7:54 AM 35.6 °F - 32.0 °F 87% 29.59 in 10.0 mi Calm Calm - N/A   Mostly Cloudy
8:14 AM 37.4 °F 34.9 °F 33.8 °F 87% 29.58 in 10.0 mi SSE 3.5 mph - N/A   Mostly Cloudy
8:34 AM 37.4 °F 32.8 °F 33.8 °F 87% 29.58 in 10.0 mi SSE 5.8 mph - N/A   Overcast
8:54 AM 37.4 °F - 33.8 °F 87% 29.58 in 10.0 mi Calm Calm - N/A   Light Drizzle
9:14 AM 39.2 °F - 35.6 °F 87% 29.58 in 10.0 mi Calm Calm - N/A   Light Drizzle
9:34 AM 39.2 °F - 35.6 °F 87% 29.57 in 10.0 mi Calm Calm - N/A   Drizzle
9:54 AM 39.2 °F - 35.6 °F 87% 29.57 in 10.0 mi Calm Calm - N/A Rain Rain
10:14 AM 39.2 °F 35.9 °F 37.4 °F 93% 29.56 in 7.0 mi East 4.6 mph - 0.01 in Rain Rain
10:34 AM 41.0 °F 39.0 °F 37.4 °F 87% 29.55 in 7.0 mi ENE 3.5 mph - 0.02 in Rain Rain
10:54 AM 41.0 °F 39.0 °F 37.4 °F 87% 29.55 in 10.0 mi NE 3.5 mph - 0.03 in Rain Light Rain
11:14 AM 41.0 °F 39.0 °F 37.4 °F 87% 29.54 in 10.0 mi ENE 3.5 mph - 0.01 in Rain Light Rain
11:34 AM 42.8 °F 39.3 °F 37.4 °F 81% 29.53 in 10.0 mi East 5.8 mph - 0.03 in Rain Light Rain
11:54 AM 41.0 °F 37.1 °F 37.4 °F 87% 29.53 in 10.0 mi ESE 5.8 mph - 0.05 in Rain Rain
12:14 PM 41.0 °F - 37.4 °F 87% 29.53 in 7.0 mi Calm Calm - 0.02 in Rain Rain
12:34 PM 42.8 °F 38.6 °F 37.4 °F 81% 29.52 in 10.0 mi ESE 6.9 mph - 0.04 in Rain Light Rain
12:54 PM 42.8 °F 38.6 °F 37.4 °F 81% 29.51 in 7.0 mi ESE 6.9 mph - 0.05 in Rain Light Rain
1:14 PM 42.8 °F 39.3 °F 37.4 °F 81% 29.51 in 5.0 mi ESE 5.8 mph - N/A Rain Light Rain
1:34 PM 42.8 °F 40.1 °F 37.4 °F 81% 29.50 in 7.0 mi East 4.6 mph - 0.01 in   Drizzle
1:54 PM 41.0 °F 38.0 °F 37.4 °F 87% 29.50 in 10.0 mi NE 4.6 mph - 0.02 in   Drizzle
2:14 PM 41.0 °F - 37.4 °F 87% 29.50 in 7.0 mi Calm Calm - N/A   Drizzle
2:34 PM 42.8 °F - 37.4 °F 81% 29.50 in 7.0 mi Calm Calm - N/A   Drizzle
2:54 PM 41.0 °F - 37.4 °F 87% 29.50 in 7.0 mi Calm Calm - 0.01 in Rain Light Rain
3:14 PM 41.0 °F - 37.4 °F 87% 29.51 in 7.0 mi Calm Calm - 0.01 in Rain Rain
3:34 PM 42.8 °F 41.1 °F 37.4 °F 81% 29.51 in 7.0 mi WNW 3.5 mph - 0.01 in Rain Light Rain
3:54 PM 42.8 °F - 37.4 °F 81% 29.51 in 7.0 mi Calm Calm - 0.02 in Rain Rain
4:14 PM 41.0 °F 36.4 °F 37.4 °F 87% 29.52 in 10.0 mi WNW 6.9 mph - N/A   Drizzle
4:34 PM 41.0 °F 37.1 °F 37.4 °F 87% 29.52 in 5.0 mi WNW 5.8 mph - N/A   Drizzle
4:54 PM 41.0 °F 36.4 °F 37.4 °F 87% 29.53 in 4.0 mi WNW 6.9 mph - N/A   Light Drizzle
5:14 PM 41.0 °F 35.8 °F 37.4 °F 87% 29.54 in 7.0 mi NW 8.1 mph - N/A   Overcast
5:34 PM 39.2 °F 35.9 °F 35.6 °F 87% 29.54 in 10.0 mi WNW 4.6 mph - N/A   Overcast
5:54 PM 39.2 °F 35.9 °F 37.4 °F 93% 29.55 in 10.0 mi WNW 4.6 mph - N/A   Overcast
6:14 PM 39.2 °F 35.0 °F 35.6 °F 87% 29.56 in 10.0 mi WNW 5.8 mph - N/A   Overcast
6:34 PM 39.2 °F 35.0 °F 35.6 °F 87% 29.56 in 10.0 mi West 5.8 mph - N/A   Overcast
6:54 PM 39.2 °F 35.0 °F 35.6 °F 87% 29.57 in 10.0 mi West 5.8 mph - N/A   Overcast
7:14 PM 39.2 °F 35.9 °F 35.6 °F 87% 29.58 in 10.0 mi West 4.6 mph - N/A   Overcast
7:34 PM 39.2 °F 35.9 °F 35.6 °F 87% 29.58 in 10.0 mi West 4.6 mph - N/A   Overcast
7:54 PM 39.2 °F 37.0 °F 35.6 °F 87% 29.58 in 10.0 mi West 3.5 mph - N/A   Overcast
8:14 PM 39.2 °F 37.0 °F 35.6 °F 87% 29.57 in 10.0 mi West 3.5 mph - N/A   Overcast
8:34 PM 37.4 °F - 33.8 °F 87% 29.57 in 10.0 mi Calm Calm - N/A   Overcast
8:54 PM 37.4 °F - 33.8 °F 87% 29.57 in 10.0 mi Calm Calm - N/A   Mostly Cloudy
9:14 PM 37.4 °F - 33.8 °F 87% 29.57 in 7.0 mi Calm Calm - N/A   Overcast
9:34 PM 37.4 °F - 33.8 °F 87% 29.58 in 5.0 mi Calm Calm - N/A   Overcast
9:54 PM 37.4 °F - 33.8 °F 87% 29.57 in 7.0 mi Calm Calm - N/A   Light Drizzle
10:14 PM 37.4 °F - 33.8 °F 87% 29.57 in 7.0 mi Calm Calm - N/A   Overcast
10:54 PM 37.4 °F - 35.6 °F 93% 29.57 in 5.0 mi Calm Calm - N/A Rain Light Rain
11:14 PM 37.4 °F - 35.6 °F 93% 29.57 in 5.0 mi Calm Calm - 0.02 in Rain Light Rain
11:34 PM 39.2 °F - 35.6 °F 87% 29.56 in 5.0 mi Calm Calm - 0.03 in Rain Rain
11:54 PM 39.2 °F - 35.6 °F 87% 29.56 in 5.0 mi Calm Calm - 0.03 in   Overcast